Skip Page Navigation
NASA JPL Caltech
NASA Logo - Jet Propulsion Laboratory + View the NASA Portal
+ Near-Earth Object (NEO) Program
Search JPL
JPL Home Earth Solar System Stars & Galaxies Technology
JPL Solar System Dynamics
BODIES ORBITS EPHEMERIDES TOOLS PHYSICAL DATA DISCOVERY FAQ SITE MAP
JPL Small-Body Database Browser
Search: [ help ]  
(2012 CL17)
Classification: Apollo [NEO]          SPK-ID: 3598900
Ephemeris | Orbit Diagram | Orbital Elements | Physical Parameters | Close-Approach Data ]

[ hide orbit diagram ]
Orbit Diagram
Note: Make sure you have Java enabled on your browser to see the applet. This applet is provided as a 3D orbit visualization tool. The applet was implemented using 2-body methods, and hence should not be used for determining accurate long-term trajectories (over several years or decades) or planetary encounter circumstances. For accurate long-term ephemerides, please instead use our Horizons system.
Orbit Viewer

Additional Notes: the orbits shown in the applet are color coded. The planets are white lines, and the asteroid/comet is a blue line. The bright white line indicates the portion of the orbit that is above the ecliptic plane, and the darker portion is below the ecliptic plane. Likewise for the asteroid/comet orbit, the light blue indicates the portion above the ecliptic plane, and the dark blue the portion below the ecliptic plane.

Orbit Viewer applet originally written and kindly provided by Osamu Ajiki (AstroArts), and further modified by Ron Baalke (JPL).


Orbital Elements at Epoch 2455968.5 (2012-Feb-11.0) TDB
Reference: JPL 2 (heliocentric ecliptic J2000)
 Element Value Uncertainty (1-sigma)   Units 
e .7041520921719444 0.0039838  
a 1.856941477339642 0.019878 AU
q .5493722510300718 0.0015811 AU
i 4.392702539733045 0.026674 deg
node 320.5242639245744 0.0055399 deg
peri 81.20385651600965 0.047449 deg
M 20.08725897766213 0.37768 deg
tp 2455916.928005194194
(2011-Dec-21.42800519)
0.14198 JED
period 924.2633925682062
2.53
14.841
0.04063
d
yr
n .3894993601333548 0.0062541 deg/d
Q 3.164510703649212 0.033874 AU
  Orbit Determination Parameters
   # obs. used (total)      20  
   data-arc span      1 day  
   first obs. used      2012-02-10  
   last obs. used      2012-02-11  
   planetary ephem.      DE405  
   SB-pert. ephem.      SB405-CPV-2  
   condition code      9  
   fit RMS      .56321  
   data source      ORB  
   producer      Otto Matic  
   solution date      2012-Feb-11 23:50:21  

Additional Information
 Earth MOID = .00616559 AU 
 T_jup = 3.648 
[ show covariance matrix ]

Ephemeris | Orbit Diagram | Orbital Elements | Physical Parameters | Close-Approach Data ]

Physical Parameter Table
Parameter Symbol Value Units Sigma Reference Notes
absolute magnitude H 25.71 mag .31812 2 autocmod 2.5b

[ show close-approach data ]
Ephemeris | Orbit Diagram | Orbital Elements | Physical Parameters | Close-Approach Data ]
ABOUT SSD CREDITS/AWARDS PRIVACY/COPYRIGHT GLOSSARY LINKS
FirstGov 2013-May-25 05:44 UT
(server date/time)  
NASA Home Page
Site Manager:   Donald K. Yeomans
Webmaster  Alan B. Chamberlin